Location: CNYAC Observatory
(43.2150°N, 74.9500°W)
Time: 05:30:31
(UTC-04:00)

Daily predictions for brighter satellites

Satellite Brightness Start Highest point End
(mag) Time Altitude Azimuth Time Altitude Azimuth Time Altitude Azimuth
Meteor 1-12 Rocket 4.5 00:00:27 10° N 00:05:42 70° N 00:05:42 70° N
Cosmos 1125 Rocket 4.3 00:01:15 10° NNW 00:05:28 48° NNE 00:05:28 48° NNE
Cosmos 2219 Rocket 4.4 00:02:45 10° W 00:06:52 20° NW 00:11:02 10° N
ATLAS 2AS CENTAUR R/B 2.9 00:08:09 73° ESE 00:08:10 73° ESE 00:16:16 10° NE
CZ-2C R/B 3.9 00:20:41 43° N 00:20:41 43° N 00:24:07 10° N
Cosmos 2184 Rocket 4.1 00:15:09 10° N 00:21:02 72° NE 00:21:02 72° NE
Terra 4.3 00:23:55 13° W 00:23:55 13° W 00:25:38 10° WNW
ATLAS 3B R/B 2.6 00:28:43 10° NW 00:35:08 78° N 00:35:08 78° N
Cosmos 1603 4.3 00:40:43 51° NNE 00:40:43 51° NNE 00:44:59 10° NNE
Cosmos 1607 4.2 00:33:03 10° NW 00:38:30 67° NW 00:38:30 67° NW
ATLAS CENTAUR R/B 3.7 00:42:33 22° NNW 00:42:33 22° NNW 00:44:44 10° NNE
Cosmos 2369 Rocket 2.9 00:35:47 10° NNW 00:40:34 48° NE 00:40:34 48° NE
Cosmos 1943 Rocket 3.5 00:43:38 10° N 00:48:43 33° NE 00:49:01 32° ENE
Cosmos 2074 Rocket 4.3 00:44:43 10° NNW 00:50:02 57° WNW 00:50:02 57° WNW
Cosmos 1238 Rocket 4.4 00:53:01 49° NNE 00:53:01 49° NNE 00:57:30 10° NNE
USA 238 DEB 3.7 00:52:49 10° NW 00:59:41 84° NNW 00:59:41 84° NNW
USA 238 3.7 00:52:55 10° NW 00:59:49 84° N 00:59:49 84° N
Cosmos 2154 Rocket 4.1 00:54:44 10° N 01:00:21 71° NNE 01:00:21 71° NNE
SL-16 R/B 3.8 01:04:06 25° WNW 01:05:08 26° NW 01:09:54 10° N
USA 215 4.4 01:09:22 10° ENE 01:13:16 29° E 01:13:16 29° E
CZ-2C R/B 3.8 01:21:24 10° N 01:25:58 36° WNW 01:25:58 36° WNW
NOSS 3-2 (C) 4.2 01:24:24 10° NNW 01:31:49 64° NE 01:34:43 41° ESE
Cosmos 2366 rocket 4.2 01:40:01 10° N 01:46:17 63° E 01:46:20 63° E
Cosmos 2181 Rocket 4.1 01:46:45 75° NW 01:46:45 75° NW 01:52:54 10° N
Cosmos 2218 Rocket 4.0 01:40:30 10° N 01:46:29 71° ENE 01:46:29 71° ENE
COSMOS 2455 3.4 01:47:24 10° NNW 01:53:18 53° NE 01:54:22 47° E
SL-8 Rocket 4.0 01:50:29 10° N 01:56:08 74° NW 01:56:08 74° NW
Cosmos 1943 3.8 01:58:32 49° NW 01:58:32 49° NW 02:03:34 10° NNE
NOSS 3-4 (A) 3.5 01:59:15 70° E 01:59:15 70° E 02:05:19 10° NE
NOSS 3-4 (C) 3.5 01:59:22 70° E 01:59:22 70° E 02:05:25 10° NE
SL-16 R/B 4.5 01:55:10 10° ESE 01:59:49 23° ENE 02:04:29 10° N
ATLAS 2AS CENTAUR R/B 4.2 01:55:31 21° W 01:59:55 36° NW 02:07:17 10° NNE
H-2A R/B 4.5 02:04:49 10° N 02:06:28 23° NNW 02:06:28 23° NNW
Cosmos 923 Rocket 4.4 02:10:36 63° NE 02:10:36 63° NE 02:15:08 10° NNE
Cosmos 724 4.3 02:04:30 10° NNW 02:10:08 76° NNW 02:10:08 76° NNW
NOSS 3-2 (A) 3.9 02:03:20 10° NW 02:10:50 69° WSW 02:11:09 69° SW
CZ-2D R/B 4.2 02:10:29 10° NE 02:13:36 16° E 02:14:59 14° ESE
Cosmos 1809 Rocket 4.4 02:13:53 10° NNW 02:19:43 74° WNW 02:19:43 74° WNW
Cosmos 2369 Rocket 4.1 02:20:30 10° NW 02:22:21 18° WNW 02:22:21 18° WNW
BREEZE M DEB (TANK) 4.3 02:06:17 10° WNW 02:27:58 59° SW 02:28:59 56° SSW
Cosmos 1943 Rocket 3.4 02:27:17 10° NW 02:30:31 30° WNW 02:30:31 30° WNW
Cosmos 1812 Rocket 4.3 02:30:41 10° N 02:34:07 51° NNE 02:34:07 51° NNE
Nadezhda 3 Rocket 4.1 02:35:15 61° SE 02:36:11 70° E 02:42:31 10° NNE
Cosmos 2112 Rocket 4.0 02:45:01 78° NW 02:45:01 78° NW 02:50:08 10° NNE
Helios 1A Rocket 4.3 02:43:54 10° N 02:46:29 31° NNW 02:46:29 31° NNW
Aureole 1 Rocket 3.7 02:49:13 52° NNW 02:49:13 52° NNW 02:52:34 10° NNE
Lacrosse 5 rocket 2.2 02:52:20 52° E 02:52:20 52° E 02:56:13 10° NE
AQUA 3.8 02:51:23 10° NNE 02:56:10 72° ESE 02:56:11 72° ESE
Cosmos 1842 4.0 02:59:23 50° NNE 02:59:23 50° NNE 03:02:20 10° N
USA 215 3.3 02:52:03 10° NE 02:58:34 71° NW 03:00:37 46° WSW
Cosmos 1624 Rocket 4.0 02:53:40 10° NNW 02:58:54 76° ENE 02:59:55 57° SE
COSMOS 2406 3.1 03:02:16 67° WSW 03:02:56 76° WNW 03:08:43 10° NNE
Cosmos 1656 Rocket 4.3 03:03:31 10° NW 03:07:22 37° WNW 03:07:22 37° WNW
IRS-P3 4.1 03:04:33 10° N 03:09:51 65° WNW 03:10:22 62° WSW
Cosmos 1825 Rocket 3.5 03:11:55 79° E 03:11:56 79° E 03:16:21 10° N
NOSS 2-2 (E) 3.5 03:12:11 74° E 03:12:11 74° E 03:16:45 10° NE
Cosmos 2056 Rocket 3.4 03:07:33 10° NNW 03:12:55 88° WSW 03:14:02 57° SSE
Spot 4 Rocket 4.2 03:09:02 10° NNE 03:14:11 64° ESE 03:15:25 48° SSE
ADEOS Rocket 3.5 03:09:15 10° NNE 03:15:22 61° ESE 03:18:33 32° S
Cosmos 389 Rocket 4.3 03:13:19 10° N 03:16:35 30° ENE 03:17:43 25° ESE
Cosmos 1680 Rocket 4.3 03:16:50 36° WNW 03:17:18 37° WNW 03:22:10 10° N
USA 32 4.1 03:17:06 47° SSE 03:18:33 71° E 03:23:47 10° N
Cosmos 1821 Rocket 3.8 03:12:54 10° N 03:19:01 78° W 03:20:58 46° S
CBERS-1 4.0 03:15:04 10° N 03:20:06 62° WNW 03:20:41 58° WSW
RESURS DK-1 3.5 03:21:41 33° NW 03:21:41 33° NW 03:25:13 10° N
CENTAUR R/B 3.0 03:15:08 10° NW 03:23:04 82° WSW 03:31:30 10° SSE
Cosmos 2239 Rocket 4.4 03:21:30 10° NNW 03:27:36 66° W 03:29:25 45° SSW
USA 267 3.2 03:24:43 10° SE 03:31:16 87° NE 03:37:52 10° NW
SL-27 R/B 3.6 03:33:10 35° NW 03:33:10 35° NW 03:35:57 10° N
Cosmos 1470 3.3 03:29:30 10° N 03:33:21 57° E 03:34:35 38° SE
Resurs 1-4 Rocket 2.1 03:28:09 10° NNE 03:33:27 82° ESE 03:35:17 42° S
Cosmos 1934 Rocket 3.9 03:29:12 10° N 03:35:30 75° W 03:38:36 32° S
IRS-1D 3.5 03:32:28 10° NNE 03:37:44 89° WNW 03:39:35 42° SSW
COSMOS 2455 4.0 03:33:55 10° NW 03:37:27 25° W 03:37:27 25° W
Cosmos 1605 Rocket 4.0 03:33:38 10° N 03:39:52 83° E 03:44:26 19° S
Okean O Rocket 4.4 03:38:50 10° ENE 03:40:54 13° E 03:42:59 10° ESE
ARIANE 5 R/B 2.5 03:37:33 10° NNE 03:42:49 86° WNW 03:44:46 40° SSW
SL-16 R/B 2.5 03:39:58 32° S 03:42:56 65° WSW 03:49:05 10° NNW
ADEOS 3.5 03:38:42 10° NNE 03:43:57 83° WNW 03:45:53 40° SSW
NPP 4.5 03:41:42 10° N 03:46:34 35° WNW 03:47:51 31° W
Cosmos 1452 Rocket 3.6 03:42:21 10° NNW 03:47:38 79° ENE 03:52:53 10° SSE
NOSS 2-2 (D) 3.7 03:47:55 48° W 03:48:47 59° NW 03:53:29 10° NNE
USA 161 3.1 03:48:07 22° ESE 03:49:23 34° ENE 03:51:58 10° N
Cosmos 1953 2.8 03:46:13 10° NNW 03:49:46 43° W 03:49:46 43° W
UNKNOWN OBJECT B 3.2 03:47:14 10° NNE 03:51:14 61° E 03:52:52 33° SSE
Cosmos-2242 3.0 03:48:31 10° N 03:52:57 89° ENE 03:55:11 29° S
Cosmos 1697 Rocket 4.0 03:48:33 10° NNW 03:53:53 42° ENE 03:59:10 10° SE
CZ-2D R/B 2.1 03:48:56 10° N 03:54:12 68° WNW 03:56:19 36° SW
Abrixas 4.2 03:54:21 22° NNW 03:55:17 27° N 03:57:46 10° ENE
Cosmos 1733 3.0 03:51:37 10° N 03:55:25 77° W 03:56:19 50° S
MOS 1 Rocket 4.1 03:52:51 10° NNE 03:57:04 45° E 04:00:29 16° SSE
Cosmos 921 Rocket 3.7 03:54:21 10° NW 03:58:27 36° W 03:58:27 36° W
Cosmos 1420 Rocket 4.3 03:56:07 10° NNW 04:01:27 68° ENE 04:06:42 10° SSE
Cosmos 1842 Rocket 4.3 04:00:42 10° N 04:05:02 53° ENE 04:09:22 10° SSE
MOZ.5/SAFIR/RUBIN 5/SL-8 3.7 04:01:45 13° SSE 04:05:53 88° W 04:10:36 10° NNW
Cosmos 2278 3.6 04:00:08 10° NNW 04:05:53 81° WSW 04:11:35 10° SSE
NOSS 2-2 (C) 4.3 04:05:48 30° W 04:07:16 41° NW 04:11:50 10° NNE
Cosmos 1758 Rocket 4.2 04:06:30 33° WSW 04:07:20 37° WNW 04:11:22 10° N
Cosmos 839 Rocket 4.2 04:02:42 10° NW 04:08:57 58° WSW 04:16:19 10° SSE
COSMOS 2487 2.4 04:10:22 45° SW 04:11:20 73° WNW 04:14:55 10° NNE
EXPRESS MD2 3.4 04:05:31 10° WNW 04:11:46 87° NNE 04:14:55 10° ESE
Cosmos 1271 Rocket 4.5 04:10:01 10° NW 04:11:44 17° WNW 04:11:44 17° WNW
Cosmos 2100 Rocket 4.3 04:07:39 10° N 04:13:50 66° E 04:19:57 10° SSE
Cosmos 2369 3.6 04:08:51 10° NNW 04:14:34 71° WSW 04:20:15 10° SSE
Cosmos 2173 Rocket 4.4 04:09:57 10° N 04:16:12 63° E 04:22:20 10° SSE
Cosmos 1818 4.2 04:14:38 25° WSW 04:17:24 44° NW 04:22:38 10° NNE
Cosmos 1656 3.6 04:12:56 10° NNW 04:18:24 88° ENE 04:23:50 10° SSE
CZ-2D R/B 3.3 04:15:35 10° N 04:19:38 75° WNW 04:21:48 26° SSW
Meteor 2-15 4.4 04:20:54 17° SSW 04:25:39 69° W 04:31:47 10° N
Cosmos 1833 Rocket 2.8 04:21:58 17° SSW 04:26:20 76° ESE 04:31:58 10° NNE
Cosmos 1269 Rocket 4.1 04:23:54 15° SSW 04:28:14 76° ESE 04:33:32 10° NNE
Cosmos 1980 Rocket 3.3 04:23:30 10° NNW 04:29:01 48° ENE 04:34:29 10° SE
GEOS 3 Rocket 3.9 04:25:15 10° NNE 04:30:26 57° NW 04:34:03 20° WSW
Lacrosse 5 rocket 3.0 04:28:02 15° W 04:31:10 31° NNW 04:35:19 10° NNE
Cosmos 2082 Rocket 2.2 04:27:15 18° SSW 04:31:40 90° NNW 04:37:24 10° NNE
DNEPR-1 R/B 4.2 04:28:55 10° NW 04:32:42 31° WSW 04:36:41 10° S
ADEOS II 3.0 04:28:52 10° NNE 04:33:57 47° E 04:39:00 10° S
Meteor 2-15 Rocket 4.4 04:30:02 13° SSW 04:35:30 69° W 04:41:38 10° N
CZ-4B R/B 4.1 04:36:36 10° NNE 04:41:46 47° E 04:46:50 10° S
Meteor 2-5 Rocket 4.0 04:37:49 15° SSW 04:42:31 56° WNW 04:48:17 10° N
Landsat 4 3.7 04:43:17 10° S 04:46:57 55° W 04:50:38 10° NNW
Cosmos 2061 Rocket 3.9 04:41:36 10° N 04:47:51 81° W 04:54:02 10° S
Cosmos 389 Rocket 4.2 04:48:56 10° NW 04:51:10 16° W 04:51:41 15° W
Cosmos 1378 4.0 04:49:57 17° SW 04:52:13 33° WNW 04:55:38 10° N
Cosmos 2098 Rocket 4.2 04:50:52 10° WNW 04:51:55 12° W 04:51:55 12° W
Cosmos 158 Rocket 3.9 04:48:18 12° SSW 04:52:59 73° WNW 04:58:11 10° NNE
GPS 2-05 Rocket1 4.3 04:52:41 16° SW 04:54:29 23° S 04:57:19 10° ESE
Cosmos 2016 Rocket 4.1 04:48:20 10° N 04:54:37 89° E 05:00:58 10° S
Cosmos 1707 4.2 04:53:47 16° WSW 04:55:40 22° WNW 04:58:43 10° NNW
Cosmos 2123 Rocket 4.5 04:50:51 10° S 04:57:04 66° E 05:03:17 10° NNE
Meteor 2-1 Rocket 4.2 04:51:48 10° NNW 04:57:28 76° W 05:03:14 10° S
CZ-4B R/B 3.1 04:55:54 10° NNE 05:00:18 89° E 05:04:48 10° SSW
ADEOS Rocket 4.3 04:55:42 10° N 05:00:32 25° WNW 05:05:31 11° WSW
Okean 3 Rocket 3.6 04:58:26 10° S 05:02:50 87° ESE 05:07:18 10° N
Cosmos 1908 4.0 05:03:43 10° N 05:07:32 56° E 05:11:21 10° SSE
In-Cosmos 22 4.0 05:04:42 10° SSW 05:10:00 77° W 05:15:18 10° N
Cosmos 1076 Rocket 3.8 05:06:50 10° S 05:11:03 71° E 05:15:17 10° NNE
Resurs 1-4 Rocket 4.0 05:09:45 10° NNW 05:12:36 15° WNW 05:15:26 10° W
CENTAUR R/B 4.2 05:07:35 10° WNW 05:12:56 19° WSW 05:18:26 10° SSW
Cosmos 1459 Rocket 4.3 05:07:36 10° NNW 05:13:28 47° W 05:19:24 10° SSW
USA 267 4.1 05:09:25 10° S 05:14:46 27° SW 05:20:08 10° WNW
Cosmos 494 Rocket 4.4 05:10:07 10° S 05:15:09 63° ESE 05:20:13 10° NNE
Cosmos 1766 Rocket 4.3 05:13:02 10° S 05:17:25 59° E 05:21:50 10° NNE
Okean O Rocket 1.7 05:13:18 10° N 05:17:42 61° WNW 05:22:01 10° SSW
Cosmos 1802 Rocket 4.3 05:11:46 10° NNW 05:17:59 52° W 05:24:06 10° SSW
Orbus 7S? 3.9 05:17:53 10° WNW 05:20:07 19° SW 05:22:07 10° S
NOSS 8 (H) 4.4 05:16:58 10° SW 05:20:20 84° NW 05:23:58 10° NE
Gbstr 26 Del rocket 4.3 05:15:26 10° WNW 05:23:14 86° SW 05:29:45 10° SE
Cosmos 1725 Rocket 4.0 05:21:48 10° NNW 05:28:03 73° W 05:34:19 10° S
